When you browse on this site, cookies collect data to enhance your experience and personalize the content and advertising you see.
Visit our Privacy Policy to learn more. By continuing to use the site, you agree to this use of cookies and data.
  • In Slovakia
  • List of Countries
  • For 7 days
  • Water Temperature
  • Satellite Maps
  • Weather Map
  • Weather Widgets
  • user-avatar
    Login

    Hourly Weather Kashnur

    Today, 19 November, Monday

    Time Temperature Precipitation Wind Pressure Humidity
    00:00 -1°C° 0 mm 2 mps 755 mmHg 97%
    01:00 -1°C° 0.1 mm 2 mps 755 mmHg 97%
    02:00 -1°C° 0.1 mm 2 mps 755 mmHg 97%
    03:00 -1°C° 0 mm 2 mps 755 mmHg 97%
    04:00 -1°C° 0.3 mm 2 mps 755 mmHg 97%
    05:00 -1°C° 0.3 mm 2 mps 755 mmHg 97%
    06:00 -1°C° 0.3 mm 2 mps 756 mmHg 97%
    07:00 -1°C° 0.2 mm 2 mps 756 mmHg 96%
    08:00 -1°C° 0.2 mm 2 mps 756 mmHg 96%
    09:00 +1°C° 0.2 mm 2 mps 756 mmHg 95%
    10:00 0°C° 0 mm 3 mps 757 mmHg 94%
    11:00 0°C° 0 mm 3 mps 757 mmHg 93%
    12:00 0°C° 0 mm 3 mps 757 mmHg 91%
    13:00 0°C° 0 mm 3 mps 757 mmHg 91%
    14:00 0°C° 0 mm 3 mps 758 mmHg 91%
    15:00 -1°C° 0 mm 3 mps 758 mmHg 90%
    16:00 -1°C° 0 mm 3 mps 758 mmHg 91%
    17:00 -1°C° 0 mm 3 mps 758 mmHg 91%
    18:00 -1°C° 0 mm 3 mps 758 mmHg 92%
    19:00 -2°C° 0.1 mm 3 mps 759 mmHg 91%
    20:00 -2°C° 0.1 mm 3 mps 759 mmHg 91%
    21:00 -2°C° 0.1 mm 3 mps 759 mmHg 90%
    22:00 -2°C° 0 mm 3 mps 759 mmHg 90%
    23:00 -4°C° 0 mm 3 mps 759 mmHg 90%

    Tomorrow, 20 November, Tuesday

    Time Temperature Precipitation Wind Pressure Humidity
    00:00 -4°C° 0 mm 3 mps 759 mmHg 90%
    01:00 -5°C° 0 mm 3 mps 759 mmHg 91%
    02:00 -4°C° 0 mm 2 mps 759 mmHg 92%
    03:00 -5°C° 0 mm 2 mps 759 mmHg 92%
    04:00 -5°C° 0 mm 2 mps 758 mmHg 92%
    05:00 -4°C° 0 mm 2 mps 758 mmHg 91%
    06:00 -4°C° 0 mm 2 mps 758 mmHg 90%
    07:00 -4°C° 0 mm 2 mps 758 mmHg 89%
    08:00 -4°C° 0 mm 2 mps 758 mmHg 88%
    09:00 -4°C° 0 mm 2 mps 757 mmHg 86%
    10:00 -4°C° 0 mm 2 mps 757 mmHg 84%
    11:00 -4°C° 0 mm 2 mps 757 mmHg 82%
    12:00 -3°C° 0 mm 2 mps 756 mmHg 80%
    13:00 -3°C° 0 mm 2 mps 756 mmHg 81%
    14:00 -4°C° 0 mm 3 mps 755 mmHg 82%
    15:00 -5°C° 0 mm 3 mps 755 mmHg 83%
    16:00 -5°C° 0.1 mm 3 mps 754 mmHg 85%
    17:00 -5°C° 0.1 mm 4 mps 753 mmHg 86%
    18:00 -5°C° 0.1 mm 4 mps 753 mmHg 87%
    19:00 -5°C° 0.1 mm 4 mps 752 mmHg 87%
    20:00 -5°C° 0.1 mm 4 mps 751 mmHg 86%
    21:00 -5°C° 0.1 mm 4 mps 751 mmHg 86%
    22:00 -5°C° 0 mm 4 mps 750 mmHg 85%
    23:00 -5°C° 0 mm 4 mps 750 mmHg 83%

    Day after tomorrow, 21 November, Wednesday

    Time Temperature Precipitation Wind Pressure Humidity
    00:00 -5°C° 0 mm 4 mps 749 mmHg 82%
    01:00 -5°C° 0 mm 4 mps 749 mmHg 82%
    02:00 -5°C° 0 mm 4 mps 748 mmHg 83%
    03:00 -5°C° 0 mm 4 mps 748 mmHg 84%
    04:00 -5°C° 0.2 mm 5 mps 747 mmHg 85%
    05:00 -5°C° 0.2 mm 5 mps 747 mmHg 86%
    06:00 -5°C° 0.2 mm 5 mps 747 mmHg 88%
    07:00 -5°C° 0 mm 5 mps 747 mmHg 86%
    08:00 -4°C° 0 mm 5 mps 747 mmHg 84%
    09:00 -4°C° 0 mm 6 mps 747 mmHg 83%
    10:00 -4°C° 0 mm 6 mps 747 mmHg 78%
    11:00 -4°C° 0 mm 7 mps 747 mmHg 74%
    12:00 -6°C° 0 mm 7 mps 747 mmHg 70%
    13:00 -5°C° 0 mm 6 mps 748 mmHg 70%
    14:00 -6°C° 0 mm 6 mps 748 mmHg 70%
    15:00 -7°C° 0 mm 5 mps 748 mmHg 71%
    16:00 -7°C° 0 mm 5 mps 748 mmHg 72%
    17:00 -7°C° 0 mm 5 mps 748 mmHg 74%
    18:00 -8°C° 0 mm 5 mps 749 mmHg 76%
    19:00 -8°C° 0 mm 5 mps 748 mmHg 77%
    20:00 -8°C° 0 mm 5 mps 748 mmHg 79%
    21:00 -8°C° 0 mm 5 mps 748 mmHg 80%
    22:00 -8°C° 0 mm 4 mps 748 mmHg 82%
    23:00 -8°C° 0 mm 4 mps 747 mmHg 85%

    22 November, Thursday

    Time Temperature Precipitation Wind Pressure Humidity
    00:00 -8°C° 0 mm 4 mps 747 mmHg 87%
    01:00 -8°C° 0 mm 4 mps 746 mmHg 87%
    02:00 -8°C° 0 mm 5 mps 745 mmHg 88%
    03:00 -8°C° 0 mm 5 mps 745 mmHg 88%
    04:00 -7°C° 0.1 mm 5 mps 744 mmHg 88%
    05:00 -8°C° 0.1 mm 6 mps 743 mmHg 87%
    06:00 -8°C° 0.1 mm 6 mps 742 mmHg 87%
    07:00 -7°C° 0.3 mm 7 mps 741 mmHg 86%
    08:00 -7°C° 0.3 mm 7 mps 740 mmHg 85%
    09:00 -7°C° 0.3 mm 7 mps 740 mmHg 85%
    10:00 -6°C° 0.3 mm 7 mps 740 mmHg 84%
    11:00 -6°C° 0.3 mm 7 mps 739 mmHg 84%
    12:00 -5°C° 0.3 mm 6 mps 739 mmHg 83%
    13:00 -5°C° 0.2 mm 5 mps 739 mmHg 80%
    14:00 -5°C° 0.2 mm 4 mps 740 mmHg 76%
    15:00 -6°C° 0.2 mm 3 mps 740 mmHg 73%
    16:00 -7°C° 0 mm 3 mps 740 mmHg 76%
    17:00 -7°C° 0 mm 3 mps 741 mmHg 78%
    18:00 -8°C° 0 mm 3 mps 741 mmHg 81%
    19:00 -8°C° 0 mm 2 mps 741 mmHg 83%
    20:00 -8°C° 0 mm 2 mps 742 mmHg 85%
    21:00 -9°C° 0 mm 2 mps 742 mmHg 87%
    22:00 -8°C° 0.1 mm 2 mps 742 mmHg 88%
    23:00 -8°C° 0.1 mm 2 mps 743 mmHg 90%

    23 November, Friday

    Time Temperature Precipitation Wind Pressure Humidity
    00:00 -8°C° 0.1 mm 2 mps 743 mmHg 92%
    01:00 -8°C° 0.3 mm 2 mps 744 mmHg 92%
    02:00 -8°C° 0.3 mm 2 mps 744 mmHg 91%
    03:00 -8°C° 0.3 mm 3 mps 745 mmHg 91%
    04:00 -10°C° 0.1 mm 4 mps 746 mmHg 87%
    05:00 -11°C° 0.1 mm 5 mps 746 mmHg 83%
    06:00 -12°C° 0.1 mm 6 mps 747 mmHg 79%
    07:00 -12°C° 0 mm 6 mps 748 mmHg 79%
    08:00 -12°C° 0 mm 5 mps 749 mmHg 80%
    09:00 -13°C° 0 mm 5 mps 750 mmHg 80%
    10:00 -12°C° 0 mm 5 mps 750 mmHg 79%
    11:00 -12°C° 0 mm 5 mps 751 mmHg 78%
    12:00 -11°C° 0 mm 5 mps 752 mmHg 77%
    13:00 -11°C° 0 mm 5 mps 752 mmHg 79%
    14:00 -10°C° 0 mm 4 mps 752 mmHg 81%
    15:00 -10°C° 0 mm 4 mps 752 mmHg 84%
    16:00 -10°C° 0 mm 4 mps 752 mmHg 85%
    17:00 -10°C° 0 mm 4 mps 752 mmHg 85%
    18:00 -10°C° 0 mm 4 mps 752 mmHg 86%
    19:00 -9°C° 0 mm 4 mps 752 mmHg 87%
    20:00 -9°C° 0 mm 4 mps 752 mmHg 88%
    21:00 -9°C° 0 mm 4 mps 752 mmHg 89%
    22:00 -9°C° 0 mm 4 mps 752 mmHg 89%
    23:00 -8°C° 0 mm 4 mps 751 mmHg 90%

    24 November, Saturday

    Time Temperature Precipitation Wind Pressure Humidity
    00:00 -8°C° 0 mm 5 mps 751 mmHg 90%
    01:00 -8°C° 0 mm 5 mps 751 mmHg 89%
    02:00 -7°C° 0 mm 5 mps 750 mmHg 89%
    03:00 -8°C° 0 mm 6 mps 750 mmHg 89%
    04:00 -8°C° 0.1 mm 6 mps 749 mmHg 88%
    05:00 -8°C° 0.1 mm 6 mps 749 mmHg 88%
    06:00 -6°C° 0.1 mm 6 mps 748 mmHg 87%
    07:00 -7°C° 0.1 mm 7 mps 747 mmHg 86%
    08:00 -7°C° 0.1 mm 7 mps 747 mmHg 85%
    09:00 -7°C° 0.1 mm 7 mps 746 mmHg 84%
    10:00 -6°C° 0.1 mm 7 mps 746 mmHg 83%
    11:00 -6°C° 0.1 mm 7 mps 745 mmHg 82%
    12:00 -6°C° 0.1 mm 8 mps 745 mmHg 81%
    13:00 -6°C° 0.1 mm 8 mps 745 mmHg 81%
    14:00 -6°C° 0.1 mm 7 mps 744 mmHg 81%
    15:00 -6°C° 0.1 mm 7 mps 744 mmHg 80%
    16:00 -4°C° 0 mm 7 mps 744 mmHg 81%
    17:00 -4°C° 0 mm 7 mps 745 mmHg 82%
    18:00 -4°C° 0 mm 7 mps 745 mmHg 82%
    19:00 -4°C° 0.1 mm 6 mps 745 mmHg 84%
    20:00 -4°C° 0.1 mm 6 mps 745 mmHg 85%
    21:00 -4°C° 0.1 mm 5 mps 745 mmHg 87%
    22:00 -4°C° 0.1 mm 5 mps 746 mmHg 87%
    23:00 -5°C° 0.1 mm 5 mps 746 mmHg 88%
    Show more